B21HL VLVT-ZGSZ

Flight info

Callsign B21HL
Flight time 1h 48m
Altitude 39000
Route ALA1B ALPHA R335 IDOTA/K0854F390 R335 VIN A206 ASSAD/K0856S1190 A202 SAMAS G221 BIGRO W552 LOVTA LOVTA3
Aircraft E190/M-SDE1E2E3FGHIJ3J4J7P2RWXY/LB1D1G1

Departure

Time 2026-05-07 12:19
Airport Wattay International Airport (VLVT)

Arrival

Time 2026-05-07 14:08
Airport Shenzhen Bao'an International Airport (ZGSZ)
Time Latitude Longitude Altitude Speed Heading
2026-05-07 12:03 17.97730 102.56787 557 ft 0 kts 225°
2026-05-07 12:10 17.97732 102.56789 557 ft 1 kts 225°
2026-05-07 12:10 17.97743 102.56800 557 ft 2 kts 225°
2026-05-07 12:11 17.97753 102.56811 557 ft 2 kts 225°
2026-05-07 12:11 17.97764 102.56822 557 ft 2 kts 224°
2026-05-07 12:11 17.97770 102.56836 557 ft 2 kts 269°
2026-05-07 12:11 17.97767 102.56851 557 ft 1 kts 305°
2026-05-07 12:12 17.97762 102.56856 557 ft 1 kts 320°
2026-05-07 12:12 17.97759 102.56859 557 ft 0 kts 315°
2026-05-07 12:12 17.97760 102.56859 557 ft 0 kts 315°
2026-05-07 12:13 17.97761 102.56857 557 ft 0 kts 315°
2026-05-07 12:13 17.97768 102.56850 557 ft 2 kts 315°
2026-05-07 12:14 17.97785 102.56831 557 ft 7 kts 311°
2026-05-07 12:14 17.97844 102.56764 557 ft 16 kts 313°
2026-05-07 12:14 17.97930 102.56673 556 ft 18 kts 316°
2026-05-07 12:14 17.98025 102.56574 554 ft 20 kts 314°
2026-05-07 12:15 17.98128 102.56468 554 ft 20 kts 323°
2026-05-07 12:15 17.98226 102.56508 554 ft 14 kts 25°
2026-05-07 12:15 17.98328 102.56515 554 ft 15 kts 354°
2026-05-07 12:15 17.98439 102.56492 554 ft 18 kts 344°
2026-05-07 12:16 17.98591 102.56443 554 ft 24 kts 342°
2026-05-07 12:16 17.98755 102.56396 554 ft 24 kts 328°
2026-05-07 12:16 17.98901 102.56252 552 ft 32 kts 315°
2026-05-07 12:16 17.99053 102.56095 552 ft 28 kts 314°
2026-05-07 12:17 17.99193 102.55946 554 ft 28 kts 313°
2026-05-07 12:17 17.99333 102.55801 554 ft 28 kts 317°
2026-05-07 12:17 17.99478 102.55653 555 ft 28 kts 313°
2026-05-07 12:17 17.99620 102.55510 557 ft 28 kts 315°
2026-05-07 12:18 17.99689 102.55366 559 ft 15 kts 298°
2026-05-07 12:18 17.99767 102.55314 560 ft 13 kts 25°
2026-05-07 12:18 17.99751 102.55377 558 ft 3 kts 138°
2026-05-07 12:18 17.99634 102.55495 557 ft 60 kts 137°
2026-05-07 12:19 17.99170 102.55974 554 ft 126 kts 135°
2026-05-07 12:19 17.98448 102.56730 724 ft 157 kts 137°
2026-05-07 12:19 17.97655 102.57614 1198 ft 171 kts 122°
2026-05-07 12:19 17.97459 102.58817 1827 ft 173 kts 74°
2026-05-07 12:20 17.98159 102.59898 2239 ft 199 kts 34°
2026-05-07 12:20 17.99550 102.60233 2672 ft 224 kts 354°
2026-05-07 12:20 18.01179 102.60165 3276 ft 245 kts
2026-05-07 12:20 18.02910 102.60433 4060 ft 259 kts 12°
2026-05-07 12:21 18.04711 102.60921 4746 ft 276 kts 18°
2026-05-07 12:21 18.06335 102.61966 5555 ft 285 kts 49°
2026-05-07 12:21 18.07542 102.63637 6535 ft 288 kts 54°
2026-05-07 12:21 18.08696 102.65315 7575 ft 287 kts 54°
2026-05-07 12:22 18.09850 102.67006 8603 ft 285 kts 54°
2026-05-07 12:22 18.10999 102.68692 9574 ft 285 kts 53°
2026-05-07 12:22 18.12140 102.70370 10387 ft 289 kts 53°
2026-05-07 12:22 18.13324 102.72115 11133 ft 296 kts 53°
2026-05-07 12:23 18.14526 102.73885 11780 ft 306 kts 53°
2026-05-07 12:23 18.15789 102.75747 12371 ft 317 kts 53°
2026-05-07 12:23 18.17074 102.77640 12932 ft 328 kts 53°
2026-05-07 12:23 18.18411 102.79612 13586 ft 336 kts 53°
2026-05-07 12:24 18.19772 102.81621 14319 ft 340 kts 53°
2026-05-07 12:24 18.21146 102.83648 15068 ft 343 kts 53°
2026-05-07 12:24 18.22532 102.85694 15814 ft 345 kts 54°
2026-05-07 12:24 18.23935 102.87766 16518 ft 348 kts 54°
2026-05-07 12:25 18.25338 102.89839 17195 ft 352 kts 54°
2026-05-07 12:25 18.26756 102.91934 17856 ft 355 kts 54°
2026-05-07 12:25 18.28192 102.94057 18479 ft 359 kts 54°
2026-05-07 12:25 18.29653 102.96217 19111 ft 363 kts 54°
2026-05-07 12:26 18.31123 102.98392 19718 ft 366 kts 54°
2026-05-07 12:26 18.32590 103.00563 20307 ft 370 kts 54°
2026-05-07 12:26 18.34089 103.02781 20852 ft 374 kts 54°
2026-05-07 12:26 18.35608 103.05030 21379 ft 378 kts 54°
2026-05-07 12:27 18.37121 103.07270 21890 ft 382 kts 54°
2026-05-07 12:27 18.38667 103.09562 22428 ft 386 kts 54°
2026-05-07 12:27 18.40223 103.11867 22951 ft 390 kts 54°
2026-05-07 12:27 18.41814 103.14227 23466 ft 394 kts 54°
2026-05-07 12:28 18.43394 103.16570 23973 ft 397 kts 54°
2026-05-07 12:28 18.45006 103.18963 24474 ft 401 kts 53°
2026-05-07 12:28 18.46623 103.21362 24958 ft 404 kts 54°
2026-05-07 12:28 18.48242 103.23766 25430 ft 408 kts 53°
2026-05-07 12:29 18.49898 103.26227 25911 ft 411 kts 53°
2026-05-07 12:29 18.51542 103.28669 26374 ft 414 kts 53°
2026-05-07 12:29 18.53196 103.31142 26812 ft 417 kts 56°
2026-05-07 12:29 18.54342 103.33956 27195 ft 423 kts 75°
2026-05-07 12:30 18.54816 103.37016 27616 ft 427 kts 85°
2026-05-07 12:30 18.55012 103.40138 28032 ft 431 kts 85°
2026-05-07 12:30 18.55261 103.43311 28426 ft 434 kts 84°
2026-05-07 12:30 18.55528 103.46467 28819 ft 437 kts 84°
2026-05-07 12:31 18.55804 103.49674 29190 ft 441 kts 83°
2026-05-07 12:31 18.56083 103.52891 29563 ft 445 kts 83°
2026-05-07 12:31 18.56364 103.56142 29941 ft 448 kts 83°
2026-05-07 12:31 18.56644 103.59388 30322 ft 451 kts 83°
2026-05-07 12:32 18.56929 103.62699 30679 ft 454 kts 83°
2026-05-07 12:32 18.57216 103.66039 31022 ft 458 kts 83°
2026-05-07 12:32 18.57500 103.69346 31345 ft 461 kts 83°
2026-05-07 12:32 18.57792 103.72753 31656 ft 465 kts 83°
2026-05-07 12:33 18.58368 103.79509 32316 ft 470 kts 83°
2026-05-07 12:33 18.58662 103.82957 32671 ft 472 kts 83°
2026-05-07 12:33 18.58954 103.86398 33022 ft 475 kts 83°
2026-05-07 12:34 18.59251 103.89898 33375 ft 478 kts 83°
2026-05-07 12:34 18.59544 103.93373 33732 ft 480 kts 83°
2026-05-07 12:34 18.59841 103.96899 34116 ft 481 kts 83°
2026-05-07 12:34 18.60135 104.00387 34482 ft 483 kts 83°
2026-05-07 12:35 18.60432 104.03924 34814 ft 485 kts 83°
2026-05-07 12:35 18.60731 104.07493 35132 ft 486 kts 83°
2026-05-07 12:35 18.61030 104.11069 35416 ft 489 kts 83°
2026-05-07 12:35 18.61327 104.14629 35694 ft 491 kts 83°
2026-05-07 12:36 18.61626 104.18224 35956 ft 493 kts 83°
2026-05-07 12:36 18.61922 104.21793 36202 ft 494 kts 83°
2026-05-07 12:36 18.62221 104.25406 36421 ft 496 kts 83°
2026-05-07 12:36 18.62522 104.29047 36676 ft 497 kts 83°
2026-05-07 12:37 18.62823 104.32690 36955 ft 497 kts 83°
2026-05-07 12:37 18.63122 104.36329 37221 ft 497 kts 83°
2026-05-07 12:37 18.63415 104.39912 37524 ft 497 kts 83°
2026-05-07 12:37 18.63716 104.43578 37817 ft 496 kts 83°
2026-05-07 12:38 18.64009 104.47163 38064 ft 497 kts 83°
2026-05-07 12:38 18.64306 104.50821 38320 ft 497 kts 83°
2026-05-07 12:38 18.64600 104.54439 38611 ft 497 kts 83°
2026-05-07 12:38 18.64895 104.58071 38924 ft 496 kts 84°
2026-05-07 12:39 18.65181 104.61621 39063 ft 487 kts 83°
2026-05-07 12:39 18.65469 104.65181 39063 ft 489 kts 84°
2026-05-07 12:39 18.66046 104.72351 39034 ft 492 kts 84°
2026-05-07 12:40 18.66622 104.79565 39030 ft 493 kts 84°
2026-05-07 12:40 18.67196 104.86773 39036 ft 494 kts 84°
2026-05-07 12:41 18.67768 104.93996 39031 ft 494 kts 84°
2026-05-07 12:41 18.68337 105.01209 39030 ft 498 kts 84°
2026-05-07 12:42 18.68906 105.08459 39010 ft 494 kts 84°
2026-05-07 12:42 18.69474 105.15719 38982 ft 495 kts 84°
2026-05-07 12:43 18.70040 105.22952 38964 ft 495 kts 84°
2026-05-07 12:43 18.70602 105.30181 38949 ft 496 kts 84°
2026-05-07 12:44 18.71165 105.37443 38949 ft 495 kts 84°
2026-05-07 12:44 18.71721 105.44662 38952 ft 493 kts 84°
2026-05-07 12:45 18.72275 105.51891 38959 ft 496 kts 84°
2026-05-07 12:45 18.72824 105.59087 38952 ft 495 kts 84°
2026-05-07 12:46 18.73217 105.66341 38944 ft 496 kts 92°
2026-05-07 12:46 18.72144 105.73529 38954 ft 498 kts 101°
2026-05-07 12:47 18.70789 105.80633 38948 ft 497 kts 101°
2026-05-07 12:47 18.69427 105.87781 38953 ft 497 kts 100°
2026-05-07 12:48 18.68071 105.94886 38948 ft 496 kts 100°
2026-05-07 12:48 18.66705 106.02027 38948 ft 496 kts 100°
2026-05-07 12:49 18.65331 106.09192 38950 ft 497 kts 100°
2026-05-07 12:49 18.63953 106.16309 38949 ft 496 kts 101°
2026-05-07 12:50 18.62567 106.23445 38949 ft 496 kts 100°
2026-05-07 12:50 18.61181 106.30569 38951 ft 496 kts 100°
2026-05-07 12:51 18.59802 106.37638 38950 ft 495 kts 100°
2026-05-07 12:51 18.58415 106.44737 38950 ft 496 kts 100°
2026-05-07 12:52 18.57023 106.51843 38951 ft 495 kts 100°
2026-05-07 12:52 18.55622 106.58987 38949 ft 496 kts 100°
2026-05-07 12:53 18.54253 106.66060 38945 ft 495 kts 100°
2026-05-07 12:53 18.52880 106.73143 38938 ft 493 kts 100°
2026-05-07 12:54 18.51505 106.80224 38941 ft 493 kts 100°
2026-05-07 12:54 18.50123 106.87324 38932 ft 493 kts 100°
2026-05-07 12:55 18.48747 106.94373 38936 ft 493 kts 100°
2026-05-07 12:55 18.47366 107.01443 38933 ft 494 kts 100°
2026-05-07 12:56 18.45977 107.08524 38936 ft 494 kts 100°
2026-05-07 12:56 18.44581 107.15630 38939 ft 494 kts 100°
2026-05-07 12:57 18.43193 107.22671 38940 ft 494 kts 100°
2026-05-07 12:57 18.41793 107.29767 38940 ft 493 kts 100°
2026-05-07 12:58 18.40401 107.36803 38939 ft 493 kts 100°
2026-05-07 12:58 18.38999 107.43877 38943 ft 493 kts 100°
2026-05-07 12:59 18.37598 107.50932 38944 ft 493 kts 100°
2026-05-07 12:59 18.36209 107.57973 38943 ft 492 kts 98°
2026-05-07 13:00 18.36073 107.65091 38952 ft 488 kts 79°
2026-05-07 13:00 18.37672 107.72021 38942 ft 484 kts 69°
2026-05-07 13:01 18.40734 107.78247 38950 ft 477 kts 50°
2026-05-07 13:01 18.45370 107.83083 38952 ft 470 kts 38°
2026-05-07 13:02 18.49890 107.88154 38945 ft 475 kts 47°
2026-05-07 13:02 18.54115 107.93497 38941 ft 476 kts 48°
2026-05-07 13:03 18.58357 107.98898 38940 ft 476 kts 48°
2026-05-07 13:03 18.62584 108.04285 38945 ft 476 kts 47°
2026-05-07 13:04 18.66784 108.09644 38947 ft 475 kts 47°
2026-05-07 13:04 18.71001 108.15027 38945 ft 476 kts 47°
2026-05-07 13:05 18.75229 108.20430 38949 ft 476 kts 47°
2026-05-07 13:05 18.79459 108.25840 38952 ft 477 kts 48°
2026-05-07 13:06 18.83671 108.31233 38957 ft 477 kts 47°
2026-05-07 13:06 18.87901 108.36652 38969 ft 477 kts 47°
2026-05-07 13:07 18.92110 108.42049 38971 ft 476 kts 47°
2026-05-07 13:07 18.96325 108.47458 38970 ft 477 kts 47°
2026-05-07 13:08 19.00561 108.52900 38973 ft 478 kts 47°
2026-05-07 13:08 19.04787 108.58334 38974 ft 478 kts 47°
2026-05-07 13:09 19.08985 108.63736 38973 ft 477 kts 47°
2026-05-07 13:09 19.13207 108.69173 38971 ft 477 kts 48°
2026-05-07 13:10 19.17424 108.74610 38976 ft 477 kts 48°
2026-05-07 13:10 19.21632 108.80039 38976 ft 478 kts 48°
2026-05-07 13:11 19.25831 108.85461 38977 ft 477 kts 48°
2026-05-07 13:11 19.30053 108.90917 38975 ft 477 kts 48°
2026-05-07 13:12 19.34256 108.96353 38979 ft 477 kts 48°
2026-05-07 13:12 19.38466 109.01804 38982 ft 478 kts 48°
2026-05-07 13:13 19.42677 109.07259 38991 ft 478 kts 48°
2026-05-07 13:13 19.46887 109.12719 38988 ft 478 kts 48°
2026-05-07 13:14 19.51085 109.18169 38986 ft 477 kts 48°
2026-05-07 13:14 19.55276 109.23659 38986 ft 477 kts 48°
2026-05-07 13:15 19.59450 109.29146 38984 ft 478 kts 48°
2026-05-07 13:15 19.63630 109.34645 38979 ft 479 kts 48°
2026-05-07 13:16 19.67806 109.40144 38981 ft 478 kts 48°
2026-05-07 13:16 19.71963 109.45623 38980 ft 477 kts 48°
2026-05-07 13:17 19.76147 109.51142 38979 ft 478 kts 48°
2026-05-07 13:17 19.80322 109.56656 38977 ft 478 kts 48°
2026-05-07 13:18 19.84474 109.62143 38973 ft 478 kts 49°
2026-05-07 13:18 19.88633 109.67646 38967 ft 478 kts 49°
2026-05-07 13:19 19.92803 109.73167 38965 ft 478 kts 49°
2026-05-07 13:19 19.96971 109.78692 38965 ft 477 kts 49°
2026-05-07 13:20 20.01119 109.84195 38963 ft 479 kts 49°
2026-05-07 13:20 20.05283 109.89724 38962 ft 479 kts 49°
2026-05-07 13:21 20.09458 109.95273 38963 ft 479 kts 49°
2026-05-07 13:21 20.13634 110.00829 38967 ft 479 kts 49°
2026-05-07 13:22 20.17789 110.06362 38969 ft 478 kts 49°
2026-05-07 13:22 20.21922 110.11871 38973 ft 478 kts 49°
2026-05-07 13:23 20.26070 110.17405 38974 ft 478 kts 49°
2026-05-07 13:23 20.30224 110.22953 38978 ft 478 kts 49°
2026-05-07 13:24 20.34446 110.28469 38984 ft 479 kts 48°
2026-05-07 13:24 20.38647 110.33961 38988 ft 479 kts 48°
2026-05-07 13:25 20.42864 110.39481 38984 ft 479 kts 48°
2026-05-07 13:25 20.47067 110.44986 38985 ft 478 kts 48°
2026-05-07 13:26 20.51289 110.50487 38981 ft 478 kts 46°
2026-05-07 13:26 20.55626 110.55859 38986 ft 478 kts 46°
2026-05-07 13:27 20.59969 110.61260 38986 ft 478 kts 46°
2026-05-07 13:27 20.64289 110.66639 38982 ft 478 kts 47°
2026-05-07 13:28 20.68630 110.72050 38984 ft 477 kts 47°
2026-05-07 13:28 20.72949 110.77437 38984 ft 477 kts 47°
2026-05-07 13:29 20.77275 110.82839 38983 ft 478 kts 47°
2026-05-07 13:29 20.81618 110.88268 38984 ft 479 kts 47°
2026-05-07 13:30 20.85952 110.93690 38984 ft 479 kts 47°
2026-05-07 13:30 20.90273 110.99102 38986 ft 479 kts 47°
2026-05-07 13:31 20.94579 111.04499 38985 ft 478 kts 47°
2026-05-07 13:31 20.98932 111.09922 38986 ft 477 kts 46°
2026-05-07 13:32 21.03259 111.15308 38986 ft 477 kts 46°
2026-05-07 13:32 21.07594 111.20711 38990 ft 478 kts 46°
2026-05-07 13:33 21.11926 111.26114 39002 ft 478 kts 46°
2026-05-07 13:33 21.16242 111.31503 39008 ft 479 kts 46°
2026-05-07 13:34 21.22778 111.39673 39008 ft 479 kts 46°
2026-05-07 13:35 21.27085 111.45064 39009 ft 479 kts 46°
2026-05-07 13:35 21.31444 111.50526 39008 ft 478 kts 46°
2026-05-07 13:36 21.35740 111.55913 39009 ft 478 kts 46°
2026-05-07 13:36 21.40083 111.61365 39008 ft 479 kts 46°
2026-05-07 13:37 21.44412 111.66805 39003 ft 479 kts 47°
2026-05-07 13:37 21.48748 111.72259 39005 ft 479 kts 47°
2026-05-07 13:38 21.53098 111.77737 39005 ft 479 kts 47°
2026-05-07 13:38 21.56846 111.83629 39011 ft 485 kts 62°
2026-05-07 13:39 21.58964 111.90574 39018 ft 490 kts 74°
2026-05-07 13:39 21.60626 111.97659 39006 ft 489 kts 73°
2026-05-07 13:40 21.62319 112.04701 39009 ft 489 kts 73°
2026-05-07 13:40 21.64027 112.11812 39019 ft 490 kts 73°
2026-05-07 13:41 21.65684 112.18729 39000 ft 459 kts 73°
2026-05-07 13:41 21.66462 112.21978 39005 ft 446 kts 73°
2026-05-07 13:41 21.67246 112.25249 39028 ft 450 kts 73°
2026-05-07 13:41 21.68031 112.28532 38733 ft 458 kts 73°
2026-05-07 13:42 21.68816 112.31822 38249 ft 458 kts 73°
2026-05-07 13:42 21.69609 112.35146 37732 ft 457 kts 73°
2026-05-07 13:42 21.70408 112.38496 37236 ft 470 kts 73°
2026-05-07 13:42 21.71221 112.41914 36709 ft 474 kts 73°
2026-05-07 13:43 21.72046 112.45384 36175 ft 474 kts 73°
2026-05-07 13:43 21.72851 112.48772 35660 ft 474 kts 73°
2026-05-07 13:43 21.73666 112.52206 35137 ft 474 kts 73°
2026-05-07 13:43 21.74489 112.55675 34608 ft 475 kts 73°
2026-05-07 13:44 21.75305 112.59084 34098 ft 475 kts 72°
2026-05-07 13:44 21.76137 112.62534 33571 ft 477 kts 72°
2026-05-07 13:44 21.76963 112.65967 33047 ft 478 kts 73°
2026-05-07 13:44 21.77804 112.69460 32522 ft 479 kts 73°
2026-05-07 13:45 21.78634 112.72916 32010 ft 481 kts 73°
2026-05-07 13:45 21.79479 112.76434 31476 ft 482 kts 73°
2026-05-07 13:45 21.80315 112.79920 30944 ft 483 kts 73°
2026-05-07 13:45 21.81159 112.83440 30408 ft 485 kts 73°
2026-05-07 13:46 21.81997 112.86943 29873 ft 487 kts 73°
2026-05-07 13:46 21.82839 112.90466 29335 ft 488 kts 73°
2026-05-07 13:46 21.83683 112.93996 28797 ft 489 kts 73°
2026-05-07 13:46 21.84530 112.97545 28258 ft 491 kts 73°
2026-05-07 13:47 21.85374 113.01094 27721 ft 492 kts 74°
2026-05-07 13:47 21.86212 113.04657 27179 ft 494 kts 74°
2026-05-07 13:47 21.87045 113.08192 26640 ft 495 kts 74°
2026-05-07 13:47 21.87892 113.11796 26092 ft 496 kts 74°
2026-05-07 13:48 21.88742 113.15417 25540 ft 497 kts 74°
2026-05-07 13:48 21.89593 113.19039 24987 ft 497 kts 74°
2026-05-07 13:48 21.90418 113.22562 24446 ft 477 kts 74°
2026-05-07 13:48 21.91261 113.25919 23920 ft 457 kts 67°
2026-05-07 13:49 21.92832 113.28787 23476 ft 446 kts 46°
2026-05-07 13:49 21.95161 113.30939 22886 ft 442 kts 29°
2026-05-07 13:49 21.97827 113.32611 22397 ft 441 kts 26°
2026-05-07 13:49 22.00532 113.34204 21902 ft 437 kts 26°
2026-05-07 13:50 22.03196 113.35745 21424 ft 435 kts 25°
2026-05-07 13:50 22.05832 113.37262 20949 ft 432 kts 25°
2026-05-07 13:50 22.08503 113.38798 20466 ft 429 kts 25°
2026-05-07 13:50 22.11109 113.40296 19998 ft 426 kts 25°
2026-05-07 13:51 22.13741 113.41810 19526 ft 423 kts 25°
2026-05-07 13:51 22.16064 113.43147 19106 ft 421 kts 25°
2026-05-07 13:51 22.18490 113.44542 18670 ft 419 kts 26°
2026-05-07 13:51 22.21801 113.45898 18102 ft 410 kts
2026-05-07 13:52 22.24585 113.45770 17609 ft 396 kts 344°
2026-05-07 13:52 22.27163 113.44928 17179 ft 377 kts 340°
2026-05-07 13:52 22.29594 113.44092 16761 ft 362 kts 340°
2026-05-07 13:52 22.31969 113.43270 16368 ft 352 kts 340°
2026-05-07 13:53 22.34280 113.42467 16024 ft 351 kts 340°
2026-05-07 13:53 22.36621 113.41654 15649 ft 353 kts 340°
2026-05-07 13:53 22.38957 113.40842 15258 ft 352 kts 340°
2026-05-07 13:53 22.41251 113.40050 14872 ft 351 kts 342°
2026-05-07 13:54 22.43634 113.39864 14492 ft 354 kts
2026-05-07 13:54 22.45934 113.40855 14045 ft 359 kts 31°
2026-05-07 13:54 22.47620 113.42821 13442 ft 355 kts 60°
2026-05-07 13:54 22.48593 113.45195 13047 ft 343 kts 65°
2026-05-07 13:55 22.49520 113.47475 12665 ft 333 kts 65°
2026-05-07 13:55 22.50451 113.49709 12300 ft 323 kts 64°
2026-05-07 13:55 22.51347 113.51842 11957 ft 313 kts 64°
2026-05-07 13:55 22.52230 113.53893 11618 ft 304 kts 59°
2026-05-07 13:56 22.53641 113.55478 11314 ft 289 kts 26°
2026-05-07 13:56 22.55529 113.56079 10961 ft 279 kts
2026-05-07 13:56 22.57459 113.56258 10625 ft 272 kts
2026-05-07 13:56 22.59326 113.56381 10314 ft 266 kts
2026-05-07 13:57 22.61099 113.56474 10025 ft 261 kts
2026-05-07 13:57 22.62899 113.56559 9736 ft 255 kts
2026-05-07 13:57 22.64638 113.56636 9461 ft 249 kts
2026-05-07 13:57 22.66359 113.56709 9187 ft 244 kts
2026-05-07 13:58 22.68050 113.56781 8917 ft 239 kts
2026-05-07 13:58 22.69698 113.56849 8658 ft 237 kts
2026-05-07 13:58 22.71302 113.56915 8409 ft 237 kts
2026-05-07 13:58 22.72979 113.56986 8144 ft 237 kts
2026-05-07 13:59 22.74637 113.57040 7930 ft 237 kts
2026-05-07 13:59 22.76296 113.57091 7680 ft 238 kts
2026-05-07 13:59 22.77956 113.57141 7418 ft 238 kts
2026-05-07 13:59 22.79619 113.57191 7152 ft 237 kts
2026-05-07 14:00 22.81268 113.57241 6890 ft 236 kts
2026-05-07 14:00 22.82840 113.57642 6633 ft 236 kts 34°
2026-05-07 14:00 22.83892 113.58975 6386 ft 236 kts 61°
2026-05-07 14:00 22.84675 113.60553 6089 ft 237 kts 62°
2026-05-07 14:01 22.85439 113.62119 5807 ft 234 kts 63°
2026-05-07 14:01 22.86190 113.63673 5545 ft 232 kts 63°
2026-05-07 14:01 22.86933 113.65219 5289 ft 231 kts 63°
2026-05-07 14:01 22.87309 113.66698 5062 ft 228 kts 96°
2026-05-07 14:02 22.86872 113.68020 4875 ft 226 kts 129°
2026-05-07 14:02 22.85594 113.69096 4490 ft 226 kts 149°
2026-05-07 14:02 22.84252 113.69983 4156 ft 225 kts 150°
2026-05-07 14:02 22.82866 113.70747 3870 ft 220 kts 154°
2026-05-07 14:03 22.81529 113.71470 3597 ft 213 kts 154°
2026-05-07 14:03 22.80223 113.72180 3290 ft 202 kts 153°
2026-05-07 14:03 22.79046 113.72822 3030 ft 174 kts 153°
2026-05-07 14:03 22.77980 113.73405 2776 ft 178 kts 154°
2026-05-07 14:04 22.76870 113.74010 2528 ft 180 kts 154°
2026-05-07 14:04 22.75810 113.74589 2264 ft 163 kts 154°
2026-05-07 14:04 22.74810 113.75135 2044 ft 157 kts 154°
2026-05-07 14:04 22.73829 113.75670 1842 ft 159 kts 154°
2026-05-07 14:05 22.72840 113.76210 1637 ft 158 kts 154°
2026-05-07 14:05 22.71863 113.76743 1427 ft 153 kts 154°
2026-05-07 14:05 22.70971 113.77230 1212 ft 135 kts 155°
2026-05-07 14:05 22.70172 113.77666 1029 ft 121 kts 155°
2026-05-07 14:06 22.69428 113.78072 891 ft 118 kts 155°
2026-05-07 14:06 22.68690 113.78474 757 ft 120 kts 155°
2026-05-07 14:06 22.68008 113.78835 612 ft 120 kts 156°
2026-05-07 14:06 22.67237 113.79240 450 ft 121 kts 156°
2026-05-07 14:07 22.66490 113.79669 312 ft 121 kts 155°
2026-05-07 14:07 22.65743 113.80080 152 ft 120 kts 156°
2026-05-07 14:07 22.64991 113.80486 29 ft 119 kts 155°
2026-05-07 14:07 22.64344 113.80835 21 ft 82 kts 153°
2026-05-07 14:08 22.63986 113.81029 21 ft 46 kts 157°
2026-05-07 14:08 22.63718 113.81176 21 ft 31 kts 150°
2026-05-07 14:08 22.63550 113.81306 21 ft 24 kts 132°
2026-05-07 14:08 22.63463 113.81431 21 ft 18 kts 124°
2026-05-07 14:09 22.63473 113.81544 21 ft 16 kts 60°
2026-05-07 14:09 22.63552 113.81595 21 ft 15 kts 332°
2026-05-07 14:09 22.63654 113.81542 21 ft 17 kts 334°
2026-05-07 14:09 22.63778 113.81473 21 ft 23 kts 332°
2026-05-07 14:10 22.63915 113.81397 21 ft 24 kts 334°
2026-05-07 14:10 22.64037 113.81330 21 ft 25 kts 332°
2026-05-07 14:10 22.64236 113.81225 21 ft 27 kts 334°
2026-05-07 14:10 22.64302 113.81214 21 ft 9 kts 58°
2026-05-07 14:11 22.64340 113.81281 21 ft 9 kts 31°
2026-05-07 14:11 22.64412 113.81261 21 ft 11 kts 335°
2026-05-07 14:11 22.64457 113.81254 21 ft 6 kts 34°
2026-05-07 14:11 22.64481 113.81293 21 ft 4 kts 61°
2026-05-07 14:12 22.64484 113.81300 21 ft 0 kts 62°